Location: Durtol
(45.7962°N, 3.0526°E)
Time: 00:46:13
(UTC+00:00)

Daily predictions for brighter satellites

Satellite Brightness Start Highest point End
(mag) Time Altitude Azimuth Time Altitude Azimuth Time Altitude Azimuth
USA 215 4.2 03:20:38 10° E 03:25:43 40° NE 03:25:43 40° NE
Cosmos 1943 Rocket 2.5 04:06:39 62° ENE 04:06:39 62° ENE 04:11:42 10° NNE
CZ-2C R/B 4.1 04:04:01 10° SE 04:08:55 35° ENE 04:13:24 12° N
Cosmos 1241 Rocket 4.4 04:10:32 74° NE 04:10:43 74° NE 04:16:54 10° SE
CENTAUR R/B 2.3 04:16:08 86° SSW 04:16:18 88° ESE 04:23:22 10° NE
Cosmos 2297 3.6 04:21:06 84° ENE 04:21:06 84° ENE 04:26:44 10° NNE
NOSS 3-2 (A) 3.4 04:27:50 63° NNW 04:27:50 63° NNW 04:33:48 10° NE
Cosmos 2278 Rocket 4.2 04:33:50 15° N 04:33:50 15° N 04:35:06 10° N
NOSS 3-2 (C) 3.2 04:33:36 58° SSW 04:34:50 86° SE 04:41:17 10° NE
SKYMED 2 4.4 04:31:25 10° SE 04:35:36 49° ENE 04:37:12 32° NNE
Envisat 3.7 04:31:09 10° NNE 04:36:07 52° E 04:41:04 10° S
Cosmos 2098 Rocket 4.1 04:37:48 10° SSE 04:41:25 43° E 04:45:57 10° NNE
Meteor 2-3 Rocket 3.6 04:36:13 10° SSW 04:41:52 81° W 04:47:39 10° N
Cosmos 968 Rocket 3.4 04:42:38 31° SSW 04:45:08 88° ESE 04:50:18 10° NNE
Landsat 5 4.5 04:40:55 10° SE 04:45:15 49° ENE 04:48:26 17° N
Genesis I 3.6 04:49:24 57° SSE 04:49:24 57° SSE 04:52:43 10° SSE
Cosmos 921 Rocket 3.0 04:50:35 65° N 04:51:12 84° ENE 04:55:39 10° SSE
DNEPR-1 R/B 4.4 04:53:15 34° N 04:55:09 55° NE 05:00:36 10° SE
H-2A R/B 4.4 04:52:55 10° ESE 04:56:08 21° ENE 04:59:25 10° NNE
Meteor 1-26 Rocket 4.2 04:53:51 25° NNW 04:57:22 67° W 05:03:04 10° S
Cosmos 1812 2.8 04:56:58 54° NNE 04:57:43 74° E 05:01:32 10° SSE
Gbstr 26 Del rocket 4.5 05:01:04 21° SSW 05:01:04 21° SSW 05:03:21 10° SSE
USA 238 DEB 3.6 05:00:10 35° WSW 05:02:58 62° NW 05:09:49 10° NE
USA 238 3.6 05:00:14 35° WSW 05:03:05 63° NW 05:09:56 10° NE
Cosmos 1151 Rocket 3.1 05:01:35 20° N 05:04:35 79° E 05:08:58 10° SSE
Cosmos 2344 3.8 05:03:35 35° W 05:06:02 46° NW 05:13:46 10° NE
Cosmos 1766 Rocket 3.9 05:01:50 10° S 05:06:08 65° E 05:10:26 10° NNE
USA 215 3.2 05:02:48 10° SE 05:09:20 89° SSW 05:13:03 29° NW
Kosmos-917 4.4 05:12:30 39° NNW 05:12:30 39° NNW 05:16:32 10° NE
Cosmos 1782 4.0 05:15:55 27° SW 05:15:55 27° SW 05:18:05 10° SSW
Meteor 1-31 Rocket 2.6 05:10:39 10° NNE 05:14:34 87° WNW 05:18:28 10° SSW
Cosmos 2279 Rocket 4.0 05:08:59 10° N 05:15:13 87° E 05:21:25 10° S
Cosmos 1328 Rocket 3.7 05:12:51 10° N 05:17:16 76° E 05:21:37 10° SSE
SJ-12 3.9 05:15:54 10° N 05:19:58 56° WNW 05:24:01 10° SSW
Cosmos 2369 Rocket 2.0 05:15:04 10° SSW 05:20:38 73° WNW 05:26:16 10° NNE
FALCON 9 DEB 3.6 05:21:07 43° NNW 05:21:07 43° NNW 05:24:15 10° NE
Cosmos 1862 3.1 05:18:29 10° S 05:22:25 86° W 05:26:24 10° N
COSMO-SKYMED 1 2.7 05:19:26 10° S 05:23:39 52° W 05:25:48 27° NW
H-2A R/B 3.0 05:24:25 10° N 05:27:55 41° WNW 05:31:27 10° SW
Cosmos 1634 Rocket 4.2 05:24:11 10° NNW 05:30:11 47° W 05:36:05 10° SSW
Cosmos 836 Rocket 4.5 05:27:51 19° NNW 05:31:33 61° WSW 05:36:40 10° S
CZ-4B R/B 3.4 05:33:49 10° NNE 05:37:19 52° E 05:40:49 10° S
CZ-4B R/B 3.7 05:37:03 10° ESE 05:39:45 23° ENE 05:42:24 10° NNE
Cosmos 1408 Rocket 3.7 05:37:14 10° S 05:41:30 73° E 05:45:49 10° NNE
Cosmos 1656 Rocket 3.5 05:38:57 10° SW 05:44:19 65° WNW 05:49:45 10° NNE
CZ-4C R/B 3.0 05:41:38 10° S 05:44:39 43° W 05:46:00 26° NW
Cosmos 1503 Rocket 3.9 05:39:28 10° SSW 05:44:45 81° WNW 05:50:07 10° NNE
DMSP B5D2-2 4.0 05:39:49 10° SSE 05:45:02 88° WSW 05:50:18 10° NNW
CZ-2C R/B 3.2 05:44:08 10° SSW 05:49:09 36° W 05:54:08 10° NNW
Cosmos 1943 Rocket 3.2 05:48:15 20° WNW 05:50:19 24° NW 05:54:53 10° N
Cosmos 2227 Rocket 4.5 05:47:06 10° N 05:50:38 16° NE 05:54:08 10° E
Cosmos 1486 Rocket 4.3 05:47:28 10° SW 05:52:30 43° WNW 05:57:33 10° N
Cosmos 1515 Rocket 3.4 05:53:12 10° NNW 05:57:34 74° W 06:01:54 10° S
FALCON 9 DEB 4.3 05:56:51 18° NNW 05:57:39 21° N 05:59:56 10° NE
SL-8 R/B 3.7 05:54:22 19° WNW 05:57:46 76° SSW 06:02:32 10° ESE
Meteor 2-15 4.4 05:52:51 10° NNW 05:58:52 67° W 06:04:51 10° S
Meteor 1-27 Rocket 3.8 05:54:57 10° N 06:00:37 89° E 06:06:22 10° S
FALCON 9 DEB 4.5 06:03:16 16° NW 06:04:21 19° N 06:06:31 10° NE
COSMOS 2487 4.0 06:01:29 10° N 06:04:32 31° ENE 06:07:34 10° SE
Cosmos 773 Rocket 3.9 05:59:46 10° NNW 06:05:01 79° WSW 06:10:11 10° SSE
SJ 16-02 1.8 06:01:44 10° S 06:06:05 65° ESE 06:10:25 10° NNE
CENTAUR R/B 3.6 06:03:21 14° W 06:07:58 30° NNW 06:14:24 10° NNE
NOAA 11 4.3 06:03:31 10° N 06:08:52 56° WNW 06:14:12 10° SSW
Alouette 2 Rocket 3.5 06:07:05 10° N 06:11:00 71° ENE 06:14:31 10° SSE
Meteor 2-19 Rocket 4.4 06:06:30 10° SSW 06:12:32 68° W 06:18:35 10° N
NOAA 12 4.0 06:08:48 10° N 06:14:05 76° WNW 06:19:19 10° SSW
Cosmos 1340 Rocket 2.8 06:10:23 10° S 06:14:18 85° E 06:18:19 10° NNE
Envisat 4.0 06:10:52 10° NNW 06:14:47 23° WNW 06:18:43 10° WSW
Cosmos 1500 Rocket 3.5 06:13:17 10° S 06:17:44 81° W 06:22:14 10° N
SL-27 R/B 2.5 06:14:41 10° NNW 06:18:14 60° WSW 06:21:43 10° S
Cosmos 1939 Rocket 2.7 06:16:42 10° N 06:20:38 67° WNW 06:24:28 10° SSW
Cosmos 2098 Rocket 4.5 06:20:02 10° WSW 06:22:54 18° WNW 06:26:11 10° NNW
FALCON 9 DEB 4.5 06:21:30 11° NW 06:23:26 19° N 06:25:38 10° NE
NOSS 3-2 (C) 4.4 06:21:35 10° W 06:26:37 28° NNW 06:32:21 10° NNE
Cosmos 1805 Rocket 3.7 06:24:59 10° S 06:29:23 79° E 06:33:46 10° NNE
Okean O Rocket 3.7 06:27:04 10° NNE 06:31:03 31° E 06:34:59 10° SSE
Sich 1 3.5 06:26:59 10° S 06:31:13 64° E 06:35:28 10° NNE
H-2A R/B 2.5 06:27:47 10° S 06:31:48 42° W 06:35:57 10° NNW
Cosmos 2026 Rocket 4.3 06:25:46 10° S 06:32:06 79° E 06:38:24 10° N
Meteor 1-25 Rocket 4.3 06:28:02 10° S 06:33:41 85° E 06:39:17 10° NNE
ATLAS 3B R/B 3.0 06:27:47 10° SSW 06:34:18 74° ESE 06:41:07 10° NE
Cosmos 2195 Rocket 4.5 06:29:11 10° S 06:35:19 85° W 06:41:28 10° N
Cosmos 1174 3.0 06:34:46 10° SW 06:37:44 82° NW 06:40:50 10° NNE
Cosmos 1500 3.7 06:34:07 10° S 06:37:53 64° E 06:41:40 10° NNE
ATLAS 5 CENTAUR R/B 1.3 06:34:23 10° SW 06:38:12 89° NW 06:42:33 10° NE
ADEOS 4.4 06:34:33 10° N 06:38:56 28° WNW 06:43:19 10° WSW
Cosmos 158 Rocket 4.0 06:35:16 10° NNW 06:40:24 85° WSW 06:45:39 10° SSE
